www.pogodaiklimat.ru

Погода и климат >> Архив погоды >> Финляндия >> Остров Уто


ПОГОДА на Острове Уто

  • Прогноз погоды на Острове Уто
  • Монитор погоды на Острове Уто

АРХИВ ПОГОДЫ на Острове Уто

Время (UTC), дата Ветер
(напр.,м/с)
 
Видим.   Явления Облачность Т
(С)
Тd
(С)
f
(%)
Тe
(С)
Тes
(С)
Комфортность P
(гПа)
Po
(гПа)
Тmin
(С)
Tmax
(С)
R
(мм)
R24
(мм)
S
(см)
18 13.09 З 7-10
{11}
45 км ясно +13.6 +8.9 73 +11 +11 1014.5 1013.6 +10.6 +16.2 5
21 13.09 З 10-11
{13}
45 км ясно +14.3 +10.1 76 +12 +12 1015.3 1014.3
00 14.09 СЗ 7-10
{10}
50 км ясно +13.7 +7.3 65 +11 +11 1016.0 1015.1
03 14.09 СЗ 7-9
{11}
50 км ясно +12.9 +6.5 65 +10 +10 1016.6 1015.7
06 14.09 З 7-9
{9}
45 км ясно +13.4 +8.0 70 +11 +11 1017.4 1016.4 +12.8 +14.4
09 14.09 З 9-12
{12}
35 км 3/3 600 м
[]
+14.6 +7.2 61 +12 +13 1018.4 1017.4
12 14.09 З 10-12
{12}
40 км 1/1 1000 м
[]
+14.6 +5.2 53 +12 +12 1018.8 1017.8
15 14.09 З 10-12
{13}
45 км 1/0 1000 м
[]
+13.9 +6.7 62 +11 +11 1018.5 1017.6
18 14.09 З 8-9
{13}
40 км ясно +13.6 +8.4 71 +11 +11 1016.9 1016.0 +13.3 +15.2
21 14.09 ЮЗ 7-8
{8}
45 км 1/0
[]
+13.5 +8.6 72 +11 +11 1014.7 1013.7
00 15.09 ЮЗ 13-16
{16}
19 км слаб. ливневой дождь 9/9 300 м
[]
+12.7 +10.4 86 +9 +9 1010.6 1009.6 0.1
03 15.09 ЮЗ 16-19
{20}
7000 м слаб. дождь 10/0 300 м
[]
+11.7 +10.2 91 +7 +7 1004.6 1003.6 3
06 15.09 ЮЗ 17-21
{22}
8000 м слаб. дождь 10/10 300 м
[]
+11.9 +10.5 91 +7 +7 998.2 997.2 +11.2 +14.1 13
09 15.09 ЮЗ 14-17
{20}
9000 м слаб. ливневой дождь 10/0 300 м
[]
+12.1 +11.1 94 +8 +8 993.6 992.7 0.1
12 15.09 З 13-16
{16}
20 км в посл. час морось ясно +12.7 +10.3 85 +9 +9 991.9 990.9
15 15.09 З 8-10
{15}
15 км в посл. час морось 6/0 1500 м
[]
+12.8 +9.4 80 +10 +10 992.3 991.4
18 15.09 З 9 14 км ясно +12.6 +9.1 79 +9 +9 992.5 991.5 +10.9 +13.7 8
21 15.09 З 10-12
{12}
15 км 1/0 1500 м
[]
+12.4 +8.9 79 +9 +9 992.0 991.1
00 16.09 З 9-11
{12}
14 км ясно +12.1 +9.6 85 +9 +9 991.5 990.5
03 16.09 З 10-14
{14}
30 км ясно +11.8 +9.2 84 +8 +8 991.8 990.8
06 16.09 З 9-11
{12}
35 км ясно +11.9 +9.4 85 +8 +8 992.8 991.8 +11.7 +12.9
09 16.09 З 7-10
{10}
8000 м сильн. ливневой дождь 9/0 600 м
[]
+11.2 +9.8 91 +8 +9 994.8 993.8 2
12 16.09 СЗ 8-13
{13}
30 км 8/8 600 м
[]
+13.8 +7.7 67 +11 +12 996.5 995.5
15 16.09 СЗ 9-12
{14}
40 км 9/0 2000 м
[]
+11.5 +8.4 81 +8 +8 997.9 996.9
18 16.09 С 8-10
{12}
50 км 3/3 600 м
[]
+11.5 +7.6 77 +8 +8 999.0 998.0 +10.5 +14.1 3
21 16.09 З 5-7
{7}
27 км слаб. ливневой дождь 9/9 1000 м
[]
+10.1 +7.5 84 +7 +7 999.5 998.5
00 17.09 З 6-7
{7}
50 км в посл. час дождь 6/1 1500 м
[]
+9.5 +7.5 87 +6 +6 998.9 997.9 0.9
03 17.09 З 6 50 км 9/1 1000 м
[]
+9.7 +8.0 89 +6 +6 998.3 997.3
06 17.09 СЗ 4-5
{5}
35 км слаб. дождь 10/10 300 м
[]
+9.7 +7.4 86 +7 +7 997.9 996.9 +9.0 +11.5 3
09 17.09 С 6-8
{8}
40 км в посл. час дождь 10/9 300 м
[]
+9.9 +7.8 87 +6 +6 997.9 996.9 0.1
12 17.09 ЮВ 4-5
{7}
50 км в посл. час дождь 1/1 1500 м
[]
+9.8 +6.2 78 +7 +10 998.2 997.2 0.2
15 17.09 С 1-2
{2}
45 км 10/0 1000 м
[]
+10.3 +6.0 75 +10 +11 998.3 997.3
18 17.09 С 8-12
{12}
45 км 10/10 600 м
[]
+10.0 +6.1 77 +6 +6 999.2 998.2 +9.2 +11.9 3
21 17.09 С 5-7
{7}
50 км ясно +9.9 +5.7 75 +7 +7 999.9 998.9
00 18.09 СЗ 3-6
{9}
45 км 8/6 600 м
[]
+9.8 +7.1 83 +8 +8 1000.5 999.5
03 18.09 С 7-9
{9}
50 км 4/0 300 м
[]
+9.6 +7.3 86 +6 +6 1001.7 1000.7
06 18.09 С 7-9
{9}
50 км 3/3 300 м
[]
+9.7 +7.5 86 +6 +6 1003.9 1002.9 +8.4 +10.3 2
09 18.09 С 6-8
{8}
50 км 4/0 300 м
[]
+11.5 +7.5 76 +9 +10 1006.3 1005.3
12 18.09 С 6-7
{8}
40 км 1/1 1000 м
[]
+12.6 +4.2 57 +10 +12 1008.2 1007.2
15 18.09 С 8-11
{11}
40 км 4/0 1000 м
[]
+12.1 +5.7 65 +9 +9 1009.5 1008.5
18 18.09 С 7-9
{10}
50 км 6/6 1000 м
[]
+11.1 +5.2 67 +8 +8 1011.1 1010.1 +9.6 +13.1
21 18.09 СЗ 6-9
{12}
50 км в посл. час дождь 9/8 300 м
[]
+9.3 +6.7 84 +6 +6 1012.3 1011.3 0.4
00 19.09 СЗ 6-8
{8}
50 км 9/5 1500 м
[]
+9.5 +5.1 74 +6 +6 1012.9 1011.9
03 19.09 З 5-7
{8}
50 км 1/0 2000 м
[]
+9.3 +6.0 80 +6 +6 1013.1 1012.1
06 19.09 СЗ 4-7
{7}
50 км 10/10 1000 м
[]
+9.8 +6.1 78 +7 +7 1013.8 1012.8 +8.9 +11.1 2
09 19.09 СВ 7-8
{14}
45 км в посл. час дождь 9/0 1500 м
[]
+9.3 +7.0 86 +5 +6 1015.3 1014.3
12 19.09 СЗ 10-14
{14}
30 км слаб. ливневой дождь 8/8 1000 м
[]
+10.0 +4.8 70 +6 +6 1016.9 1015.9
15 19.09 С 10-16
{16}
24 км слаб. ливневой дождь 9/8 1000 м
[]
+10.3 +4.3 66 +6 +6 1017.3 1016.3
18 19.09 С 8-11
{19}
50 км в посл. час дождь 9/3 600 м
[]
+7.8 +3.8 76 +3 +3 1018.7 1017.7 +6.4 +11.9 2
21 19.09 С 6-9
{10}
50 км 1/0 600 м
[]
+8.4 +3.4 71 +5 +5 1019.7 1018.7
00 20.09 СЗ 3-5
{5}
50 км 3/3
[]
+8.3 +2.3 66 +6 +6 1019.7 1018.7
03 20.09 З 6-8
{9}
50 км 5/0
[]
+8.3 +4.1 75 +4 +4 1018.8 1017.8
06 20.09 З 7-9
{9}
45 км 8/0
[]
+10.1 +4.7 69 +7 +7 1018.3 1017.3 +7.5 +10.1
09 20.09 З 8-10
{10}
45 км ясно +10.7 +5.1 68 +7 +8 1018.3 1017.3
12 20.09 З 7-8
{9}
45 км ясно +10.8 +4.3 64 +8 +9 1017.7 1016.8
15 20.09 З 5-6
{6}
50 км 10/0 2000 м
[]
+10.5 +5.4 71 +8 +8 1016.2 1015.2

 

Местоположение метеостанции Остров Уто (Финляндия): широта 59.78 долгота 21.37 высота над уровнем моря 9 м.

В архиве по умолчанию представлена погода на Острове Уто за последнюю неделю. Архивные данные за месяц целиком и за предыдущие месяцы, начиная с января 2011 года, Вы можете получить, выбрав интересующий диапазон дат из раскрывающегося списка и нажав кнопку "Ввод!".


*Определитесь, кто Вы:
робот инопланетянин человек

Внимание! Время в таблицах - всемирное. Для получения местного времени необходимо прибавить поправку, которая равна 1 ч.

Смотрите также архив погоды в соседних городах и на ближайших метеорологических станциях:

Погода на Острове Фагерхольм (Финляндия) (41 км)
Погода на Вано (Финляндия) (47 км)
Погода в Кумлинге (Финляндия) (64 км)
Погода в Кокар Богскар (Финляндия) (64 км)
Погода в Логнес Харбор (Финляндия) (71 км)
Погода на Острове Раякари (Финляндия) (78 км)
Погода в Лемланд Нихамн (Финляндия) (82 км)
Погода в Ханко (Финляндия) (87 км)
Погода в Турку (Финляндия) (87 км)
Погода на Острове Руссаро (Финляндия) (88 км)

Пояснения к столбцам:

Ветер - указаны скорость ветра в м/с - средняя за 10 мин, порывы в срок и между сроками (в фигурных скобках) и направление, откуда дует ветер: С - северный, СВ - северо-восточный, В - восточный, ЮВ - юго-восточный, Ю - южный, ЮЗ - юго-западный, З - западный, СЗ - северо-западный.
Видимость - горизонтальная дальность видимости в метрах или километрах. При видимости от 1 до 10 км при отсутствии осадков обычно наблюдается дымка, при ухудшении видимости до 1 км и менее - туман. В сухую погоду видимость может ухудшаться дымом, пылью или мглою.
Явления - указаны атмосферные явления, наблюдавшиеся в срок или в последний час перед сроком; фигурными скобками обозначены явления, наблюдавшиеся между сроками (за 1-3 часа до срока); квадратными скобками обозначены град или гололедные отложения с указанием их диаметра в мм.
Облачность - указаны через наклонную черту общая и нижняя облачность в баллах и высота нижней границы облаков в метрах; квадратными скобками обозначены формы облаков: Ci - перистые, Cs - перисто-слоистые, Cc - перисто-кучевые, Ac - высококучевые, As - высокослоистые, Sc - слоисто-кучевые, Ns - слоисто-дождевые, Cu - кучевые, Cb - кучево-дождевые. Подробнее классификацию облаков см. в Атласе облаков (PDF).
T - Температура воздуха - температура, измеренная на высоте 2 м над землей.
Td - Температура точки росы - температура, при понижении до которой содержащийся в воздухе водяной пар достигнет насыщения.
f - Относительная влажность воздуха - влажноcть воздуха, измеренная на высоте 2 м над землей.
Te - Эффективная температура - температура, которую ощущает одетый по сезону человек в тени. Характеристика душности погоды. При расчете учитывается влияние влажности воздуха и скорости ветра на теплоощущения человека.
Tes - Эффективная температура на солнце - температура, которую ощущает человек, с поправкой на солнечный нагрев. Характеристика знойности погоды. Зависит от высоты солнца над горизонтом, облачности и скорости ветра. Ночью, в пасмурную погоду, а также при ветре 12 м/с и более поправка равна нулю.
P - Атмосферное давление - приведенное к уровню моря атмосферное давление.
Po - Атмосферное давление - измеренное на уровне метеостанции атмосферное давление.
Tmin - Минимальная температура - минимум температуры воздуха на высоте 2 м над землей.
Tmax - Максимальная температура - максимум температуры воздуха на высоте 2 м над землей.
R - Количество осадков - Количество выпавших осадков за период времени, мм. При наведении курсора мыши на число - период времени, за который выпало указанное количество осадков.
R24 - Количество осадков - Количество выпавших осадков за 24 часа, мм.
S - Снежный покров - Высота снежного покрова, см. При наведении курсора мыши на число - состояние снежного покрова и степень покрытия местности в баллах.